This demonstration page uses our WeatherBlox Daily Observations layout. Learn more.

38.88101, -77.10428

Hourly Observations for October 4, 2016

Temp ( °F °C ) Dew Point ( °F °C ) Humidity (%) Winds ( mph kmh ) Pressure ( in mb ) Visibility ( mi km ) Precip ( " mm )
12:52 am 00:52 Mostly Clear 63 17.2 58 14.4 84 84 Calm 30.12 1020 10 16.09344 0 0
1:52 am 01:52 Clear 63 17.2 59 15 87 87 Calm 30.15 1021 10 16.09344 0 0
2:52 am 02:52 Clear 61 16.1 58 14.4 90 90 N 3 6 30.15 1021 10 16.09344 0 0
3:52 am 03:52 Clear 61 16.1 57 13.9 87 87 N 5 7 30.15 1021 10 16.09344 0 0
4:52 am 04:52 Clear 59 15 56 13.3 90 90 NNW 6 9 30.18 1022 10 16.09344 0 0
5:52 am 05:52 Clear 59 15 56 13.3 90 90 NNW 8 13 30.18 1022 10 16.09344 0 0
6:52 am 06:52 Mostly Clear 59 15 56 13.3 90 90 NNW 6 9 30.21 1023 10 16.09344 0 0
7:52 am 07:52 Mostly Sunny 60 15.6 57 13.9 90 90 N 5 7 30.21 1023 10 16.09344 0 0
8:52 am 08:52 Mostly Sunny 64 17.8 58 14.4 81 81 NNE 10 17 30.24 1024 10 16.09344 0 0
9:52 am 09:52 Mostly Sunny 66 18.9 59 15 78 78 NNE 8 13 30.24 1024 10 16.09344 0 0
10:39 am 10:39 Mostly Cloudy 67 19.4 61 16.1 81 81 NE 10 17 30.24 1024 10 16.09344 0 0
10:52 am 10:52 Mostly Cloudy 67 19.4 62 16.7 84 84 NE 9 15 30.24 1024 10 16.09344 0 0
11:11 am 11:11 Partly Cloudy 69 20.6 62 16.7 78 78 NE 8 13 30.24 1024 10 16.09344 0 0
11:52 am 11:52 Partly Cloudy 70 21.1 61 16.1 73 73 NE 8 13 30.24 1024 10 16.09344 0 0
12:52 pm 12:52 Mostly Cloudy 72 22.2 61 16.1 68 68 E 9 15 30.24 1024 10 16.09344 0 0
1:52 pm 13:52 Partly Cloudy 73 22.8 59 15 62 62 ENE 13 20 30.24 1024 10 16.09344 0 0
2:52 pm 14:52 Mostly Cloudy 72 22.2 61 16.1 68 68 NE 16 26 30.24 1024 10 16.09344 0 0
3:52 pm 15:52 Mostly Cloudy 71 21.7 60 15.6 68 68 ENE 15 24 30.21 1023 10 16.09344 0 0
4:52 pm 16:52 Partly Cloudy 72 22.2 60 15.6 66 66 ENE 14 22 30.21 1023 10 16.09344 0 0
5:52 pm 17:52 Partly Cloudy 70 21.1 59 15 68 68 ENE 14 22 30.24 1024 10 16.09344 0 0
6:52 pm 18:52 Mostly Cloudy 68 20 60 15.6 76 76 ENE 13 20 30.24 1024 10 16.09344 0 0
7:52 pm 19:52 Partly Cloudy 66 18.9 59 15 78 78 ENE 14 22 30.27 1025 10 16.09344 0 0
8:52 pm 20:52 Clear 65 18.3 58 14.4 78 78 NE 10 17 30.27 1025 10 16.09344 0 0
9:52 pm 21:52 Mostly Clear 64 17.8 58 14.4 81 81 ENE 8 13 30.27 1025 10 16.09344 0 0
10:52 pm 22:52 Mostly Clear 63 17.2 58 14.4 84 84 ENE 12 19 30.27 1025 10 16.09344 0 0
11:52 pm 23:52 Mostly Clear 63 17.2 58 14.4 84 84 NE 13 20 30.27 1025 10 16.09344 0 0

Powered by AerisWeather